TimeCST,TemperatureF,Dew PointF,Humidity,Sea Level PressureIn,VisibilityMPH,Wind Direction,Wind SpeedMPH,Gust SpeedMPH,PrecipitationIn,Events,Conditions,WindDirDegrees,DateUTC
12:15 AM,39.2,33.8,81,29.91,10.0,West,20.7,29.9,N/A,,Mostly Cloudy,270,2012-11-23 06:15:00
12:35 AM,39.2,33.3,79,29.92,10.0,West,23.0,27.6,N/A,,Overcast,280,2012-11-23 06:35:00
12:55 AM,38.5,32.4,79,29.92,10.0,West,19.6,25.3,N/A,,Overcast,280,2012-11-23 06:55:00
1:15 AM,38.1,32.0,79,29.92,10.0,West,18.4,27.6,N/A,,Mostly Cloudy,270,2012-11-23 07:15:00
1:35 AM,37.6,32.0,80,29.92,10.0,West,19.6,25.3,N/A,,Scattered Clouds,280,2012-11-23 07:35:00
1:55 AM,37.6,32.0,80,29.92,10.0,West,18.4,24.2,N/A,,Clear,270,2012-11-23 07:55:00
2:15 AM,37.6,32.0,80,29.92,10.0,West,11.5,-,N/A,,Clear,260,2012-11-23 08:15:00
2:35 AM,37.6,32.0,80,29.92,10.0,West,15.0,-,N/A,,Clear,260,2012-11-23 08:35:00
2:55 AM,37.4,31.8,80,29.92,10.0,WSW,12.7,-,N/A,,Clear,250,2012-11-23 08:55:00
3:15 AM,37.4,31.8,80,29.92,10.0,West,15.0,20.7,N/A,,Scattered Clouds,260,2012-11-23 09:15:00
3:35 AM,37.0,32.0,82,29.91,10.0,West,17.3,-,N/A,,Mostly Cloudy,260,2012-11-23 09:35:00
3:55 AM,37.6,32.0,80,29.90,10.0,WSW,18.4,26.5,N/A,,Overcast,250,2012-11-23 09:55:00
4:15 AM,37.9,32.0,79,29.90,10.0,West,19.6,25.3,N/A,,Overcast,260,2012-11-23 10:15:00
4:35 AM,36.7,29.7,76,29.90,10.0,West,26.5,34.5,N/A,,Overcast,270,2012-11-23 10:35:00
5:15 AM,36.1,27.0,69,29.91,10.0,West,21.9,33.4,N/A,,Overcast,280,2012-11-23 11:15:00
5:35 AM,35.1,26.2,70,29.92,10.0,West,23.0,33.4,N/A,,Overcast,280,2012-11-23 11:35:00
5:55 AM,34.9,25.7,69,29.93,10.0,West,26.5,34.5,N/A,,Overcast,270,2012-11-23 11:55:00
6:15 AM,34.3,25.3,70,29.93,10.0,West,23.0,34.5,N/A,,Overcast,270,2012-11-23 12:15:00
6:35 AM,34.0,25.3,71,29.94,10.0,West,28.8,34.5,N/A,,Overcast,270,2012-11-23 12:35:00
6:55 AM,33.3,24.8,71,29.96,10.0,West,27.6,34.5,N/A,,Overcast,280,2012-11-23 12:55:00
7:15 AM,32.5,24.8,73,29.96,10.0,WNW,29.9,35.7,N/A,,Overcast,290,2012-11-23 13:15:00
7:35 AM,30.2,20.1,66,29.98,10.0,WNW,35.7,42.6,N/A,,Overcast,290,2012-11-23 13:35:00
7:55 AM,29.3,19.2,66,30.00,10.0,WNW,26.5,42.6,N/A,,Mostly Cloudy,290,2012-11-23 13:55:00
8:15 AM,29.7,19.6,66,30.01,10.0,WNW,26.5,42.6,N/A,,Mostly Cloudy,290,2012-11-23 14:15:00
8:35 AM,29.7,19.0,65,30.02,10.0,WNW,26.5,39.1,N/A,,Overcast,290,2012-11-23 14:35:00
8:55 AM,29.8,19.2,65,30.03,10.0,West,24.2,43.7,N/A,,Overcast,280,2012-11-23 14:55:00
9:35 AM,30.2,19.4,64,30.04,10.0,WNW,24.2,41.4,N/A,,Overcast,290,2012-11-23 15:35:00
9:55 AM,30.2,19.8,65,30.05,10.0,West,26.5,36.8,N/A,,Overcast,280,2012-11-23 15:55:00
10:15 AM,30.2,19.9,66,30.07,10.0,WNW,25.3,34.5,N/A,,Overcast,290,2012-11-23 16:15:00
10:35 AM,29.7,19.9,67,30.08,10.0,West,26.5,35.7,N/A,,Overcast,280,2012-11-23 16:35:00
10:55 AM,29.8,19.9,67,30.08,10.0,WNW,25.3,32.2,N/A,,Overcast,290,2012-11-23 16:55:00
11:15 AM,30.2,19.9,66,30.08,10.0,West,25.3,35.7,N/A,,Overcast,280,2012-11-23 17:15:00
11:35 AM,30.7,19.8,64,30.08,10.0,West,26.5,34.5,N/A,,Overcast,280,2012-11-23 17:35:00
11:55 AM,30.4,19.4,64,30.08,10.0,WNW,24.2,31.1,N/A,,Overcast,290,2012-11-23 17:55:00
12:15 PM,30.2,19.0,63,30.09,10.0,WNW,24.2,33.4,N/A,,Overcast,290,2012-11-23 18:15:00
12:35 PM,30.2,18.1,61,30.09,10.0,WNW,31.1,36.8,N/A,,Overcast,290,2012-11-23 18:35:00
12:55 PM,30.2,18.9,63,30.10,10.0,WNW,25.3,31.1,N/A,,Overcast,300,2012-11-23 18:55:00
1:15 PM,30.7,18.5,60,30.10,10.0,WNW,24.2,34.5,N/A,,Overcast,290,2012-11-23 19:15:00
1:35 PM,30.6,18.1,60,30.11,10.0,WNW,27.6,38.0,N/A,,Overcast,290,2012-11-23 19:35:00
1:55 PM,31.1,18.7,60,30.11,10.0,West,26.5,34.5,N/A,,Overcast,280,2012-11-23 19:55:00
2:15 PM,30.2,18.1,61,30.12,10.0,WNW,25.3,34.5,N/A,,Overcast,290,2012-11-23 20:15:00
2:35 PM,30.2,18.0,60,30.13,10.0,WNW,23.0,33.4,N/A,,Overcast,290,2012-11-23 20:35:00
2:55 PM,29.8,18.0,61,30.14,10.0,WNW,21.9,32.2,N/A,,Overcast,290,2012-11-23 20:55:00
3:15 PM,29.3,17.8,62,30.15,10.0,WNW,23.0,28.8,N/A,,Overcast,300,2012-11-23 21:15:00
3:35 PM,29.1,17.6,62,30.16,10.0,West,23.0,29.9,N/A,,Overcast,280,2012-11-23 21:35:00
3:55 PM,29.1,17.6,62,30.17,10.0,WNW,23.0,29.9,N/A,,Overcast,290,2012-11-23 21:55:00
4:15 PM,29.1,18.1,64,30.18,10.0,WNW,20.7,26.5,N/A,,Overcast,290,2012-11-23 22:15:00
4:35 PM,28.9,17.6,63,30.19,10.0,West,16.1,25.3,N/A,,Overcast,280,2012-11-23 22:35:00
4:55 PM,29.1,17.8,63,30.19,10.0,WNW,21.9,31.1,N/A,,Overcast,300,2012-11-23 22:55:00
5:15 PM,29.1,18.1,64,30.19,10.0,WNW,17.3,21.9,N/A,,Overcast,290,2012-11-23 23:15:00
5:35 PM,29.1,18.5,65,30.20,10.0,WNW,13.8,-,N/A,,Overcast,290,2012-11-23 23:35:00
5:55 PM,28.9,18.5,65,30.20,10.0,WNW,20.7,24.2,N/A,,Overcast,290,2012-11-23 23:55:00
6:15 PM,28.9,18.5,65,30.20,10.0,WNW,21.9,31.1,N/A,,Overcast,300,2012-11-24 00:15:00
6:35 PM,28.6,18.3,65,30.21,10.0,WNW,18.4,26.5,N/A,,Overcast,300,2012-11-24 00:35:00
6:55 PM,28.4,18.1,65,30.21,10.0,WNW,16.1,25.3,N/A,,Overcast,300,2012-11-24 00:55:00
7:15 PM,28.4,18.3,66,30.21,10.0,WNW,15.0,25.3,N/A,,Overcast,300,2012-11-24 01:15:00
7:35 PM,28.4,18.5,66,30.21,10.0,WNW,12.7,20.7,N/A,,Overcast,300,2012-11-24 01:35:00
7:55 PM,28.4,18.5,66,30.21,10.0,WNW,15.0,21.9,N/A,,Overcast,300,2012-11-24 01:55:00
8:15 PM,28.4,18.5,66,30.21,10.0,NW,12.7,-,N/A,,Overcast,310,2012-11-24 02:15:00
8:35 PM,28.4,18.5,66,30.20,10.0,NW,12.7,-,N/A,,Overcast,310,2012-11-24 02:35:00
8:55 PM,28.2,18.3,66,30.20,10.0,NW,13.8,19.6,N/A,,Overcast,310,2012-11-24 02:55:00
9:15 PM,28.4,18.1,65,30.21,10.0,NW,12.7,21.9,N/A,,Overcast,310,2012-11-24 03:15:00
9:35 PM,28.4,18.3,66,30.21,10.0,NW,12.7,-,N/A,,Overcast,310,2012-11-24 03:35:00
9:55 PM,28.4,18.1,65,30.20,10.0,NW,10.4,-,N/A,,Overcast,320,2012-11-24 03:55:00
10:15 PM,28.4,17.8,64,30.21,10.0,NW,12.7,-,N/A,,Overcast,310,2012-11-24 04:15:00
10:35 PM,28.4,17.6,64,30.20,10.0,NW,10.4,18.4,N/A,,Overcast,320,2012-11-24 04:35:00
10:55 PM,28.2,18.0,65,30.20,10.0,NW,11.5,-,N/A,,Overcast,320,2012-11-24 04:55:00
11:15 PM,28.0,17.6,65,30.21,10.0,NW,16.1,20.7,N/A,,Overcast,310,2012-11-24 05:15:00
11:35 PM,28.0,18.0,66,30.21,10.0,NW,11.5,20.7,N/A,,Overcast,310,2012-11-24 05:35:00
11:55 PM,27.9,17.6,65,30.21,10.0,NW,9.2,16.1,N/A,,Overcast,320,2012-11-24 05:55:00